This is the latest recevied weather packets stored in our database for station/object N3AVN. If no packets are shown the sender has not sent any weather packets the latest 10 day(s).
| Time | Temp. | Humidity | Pressure | Rain* | Wind** | Luminosity | Snow |
|---|---|---|---|---|---|---|---|
| 1777603648 | 7.78° C | 84% | 1007.8 hPa | 0 mm | - | 0 W/m² | - |
| 1777603344 | 7.78° C | 85% | 1007.6 hPa | 0 mm | - | 0 W/m² | - |
| 1777603040 | 7.78° C | 85% | 1007.8 hPa | 0 mm | - | 0 W/m² | - |
| 1777602735 | 7.78° C | 84% | 1007.5 hPa | 0 mm | - | 0 W/m² | - |
| 1777602430 | 8.33° C | 82% | 1007.4 hPa | 0 mm | - | 0 W/m² | - |
| 1777602127 | 8.33° C | 81% | 1007.4 hPa | 0 mm | - | 0 W/m² | - |
| 1777601822 | 8.89° C | 81% | 1007.6 hPa | 0 mm | - | 0 W/m² | - |
| 1777601517 | 8.89° C | 80% | 1007.3 hPa | 0 mm | - | 0 W/m² | - |
| 1777601213 | 8.89° C | 79% | 1007.3 hPa | 0 mm | - | 0 W/m² | - |
| 1777600911 | 9.44° C | 78% | 1007.2 hPa | 0 mm | - | 0 W/m² | - |
| 1777600606 | 8.89° C | 80% | 1007.3 hPa | 0 mm | - | 0 W/m² | - |
| 1777600302 | 8.89° C | 81% | 1007.3 hPa | 0 mm | - | 0 W/m² | - |
| 1777599998 | 9.44° C | 82% | 1007.2 hPa | 0 mm | - | 0 W/m² | - |
| 1777599694 | 9.44° C | 84% | 1007.4 hPa | 0 mm | - | 0 W/m² | - |
| 1777599385 | 10° C | 84% | 1007.3 hPa | 0 mm | - | 0 W/m² | - |
| 1777599083 | 9.44° C | 86% | 1007.3 hPa | 0 mm | - | 0 W/m² | - |
| 1777598780 | 9.44° C | 86% | 1007.4 hPa | 0 mm | - | 0 W/m² | - |
| 1777598475 | 10° C | 86% | 1007.3 hPa | 0 mm | - | 0 W/m² | - |
| 1777598174 | 10° C | 86% | 1007 hPa | 0 mm | - | 0 W/m² | - |
| 1777597869 | 10.56° C | 84% | 1007.1 hPa | 0 mm | - | 0 W/m² | - |
| 1777597569 | 10.56° C | 82% | 1007.2 hPa | 0 mm | - | 0 W/m² | - |
| 1777597264 | 10.56° C | 83% | 1007 hPa | 0 mm | - | 0 W/m² | - |
| 1777596959 | 10.56° C | 84% | 1007.1 hPa | 0 mm | - | 0 W/m² | - |
| 1777596656 | 11.11° C | 85% | 1006.8 hPa | 0 mm | - | 0 W/m² | - |
| 1777596353 | 10.56° C | 85% | 1006.5 hPa | 0 mm | - | 0 W/m² | - |
* Rain latest hour (hover to see other rain measurements)
** Current wind speed in m/s (hover to see current wind gust speed)